Terminal Aerodrome Forecast
Issued by NWS

Current Version | Previous Version | Graphics & Text | Print | Product List | Glossary On
Versions: 1 2 3 4 5 6 7 8 9 10 11 12 13 14 15 16 17 18 19 20
000
FTUS41 KILN 260900 AAA
TAFLCK
TAF AMD
KLCK 260908Z 2609/2706 VRB03KT P6SM SCT250
      TEMPO 2610/2613 4SM BR
     FM261500 21005KT P6SM SCT035 SCT250
     FM262300 24004KT P6SM SCT250=

USA.gov is the U.S. government's official web portal to all federal, state and local government web resources and services.